Content
SEND FEEDBACK

Daily
Averages
Monthly
Summary
United States of America

STEAMBOAT SPRINGS, COLORADO


Home > North America > United States > Colorado
Elevation: 6917 feet     Latitude: 40 30N     Longitude: 106 50W

WEATHER
 
SELECT A DAY
Number of Records: 94,079;   Date Range: 1/3/95 - 12/20/14
 
SHARE

PRINT THIS DATA

[ ← Previous Day ]
WEATHER ALMANAC - FEBRUARY 14, 2013
[ Next Day → ]
[ °C ]   °F
Weather ElementAverageHighLow
Temperature24.5 °F30.4 °F (12:35 pm)20.3 °F (3:35 am)
Dewpoint19.1 °F21.7 °F (8:15 am)10.6 °F (4:35 pm)
Humidity81.1 %96 % (3:35 am)47 % (4:35 pm)
Barometer30.16 in30.23 in (11:55 pm)30.09 in (3:35 am)
Wind Speed3.9 mph17.3 mph (12:55 pm)
Wind Gust23 mph (12:55 pm)
Weather ElementAverage
Visibility7 mi
Wind DirectionE (94.4 °)

Weather ElementTotal
Precipitation---
Heating Degree Days39.7 (Base 65)
Averaged from 71 records on February 14, 2013
WEATHER CONDITIONS BREAKOUT
WIND DIRECTION BREAKOUT
WEATHER BY HOUR - FEBRUARY 14, 2013
[ °C ]   °F
Local TimeTemperatureDewpointHumidityBarometerVisibilityWind DirectionWind SpeedGust SpeedPrecipitationEventsConditions
12:35 AM21.6 °F19.9 °F93 %30.12 in10.0 miCalmOvercast
12:55 AM20.8 °F19.4 °F94 %30.12 in10.0 miCalmOvercast
1:15 AM21.2 °F19.8 °F94 %30.11 in7.0 miCalmOvercast
1:35 AM21.2 °F19.9 °F95 %30.11 in10.0 miCalmOvercast
1:55 AM21.2 °F19.8 °F94 %30.11 in10.0 miCalmOvercast
2:15 AM21.0 °F19.6 °F94 %30.11 in10.0 miCalmOvercast
2:35 AM21.2 °F19.9 °F95 %30.11 in5.0 miCalmOvercast
2:55 AM20.7 °F19.2 °F94 %30.10 in5.0 miCalmOvercast
3:15 AM20.8 °F19.4 °F94 %30.10 in5.0 miCalmOvercast
3:35 AM20.3 °F19.2 °F96 %30.09 in2.5 miCalmOvercast
3:55 AM20.8 °F19.4 °F94 %30.09 in2.0 miCalmOvercast
4:15 AM20.8 °F19.4 °F94 %30.09 in1.8 miCalmOvercast
4:35 AM21.2 °F19.9 °F95 %30.09 in1.5 miCalmOvercast
4:55 AM21.7 °F20.3 °F94 %30.09 in1.5 miCalmOvercast
5:15 AM21.9 °F20.7 °F95 %30.09 in1.5 miCalmOvercast
5:35 AM22.6 °F21.6 °F96 %30.09 in2.0 miCalmOvercast
5:55 AM22.5 °F21.2 °F95 %30.09 in1.2 miCalmOvercast
6:15 AM22.6 °F21.4 °F95 %30.09 in2.0 miCalmOvercast
6:35 AM22.1 °F21.2 °F96 %30.10 in2.0 miCalmOvercast
6:55 AM22.5 °F21.4 °F96 %30.10 in2.5 miCalmOvercast
7:15 AM22.1 °F21.0 °F96 %30.11 in1.2 miCalmOvercast
7:35 AM22.1 °F21.0 °F96 %30.12 in1.5 miCalmOvercast
7:55 AM22.6 °F21.2 °F94 %30.13 in1.2 miCalmOvercast
8:15 AM23.4 °F21.7 °F94 %30.13 in1.0 miCalmOvercast
8:35 AM23.9 °F21.7 °F91 %30.14 in2.5 miCalmOvercast
8:55 AM23.9 °F21.6 °F91 %30.14 in2.5 miCalmOvercast
9:15 AM25.3 °F20.7 °F82 %30.15 in4.0 miCalmOvercast
9:35 AM26.1 °F20.3 °F79 %30.15 in3.0 miSW (220°)3.5 mphOvercast
9:55 AM26.2 °F20.8 °F80 %30.16 in5.0 miSW (220°)8.1 mphOvercast
10:15 AM26.6 °F20.8 °F79 %30.16 in10.0 miSW (230°)12.7 mphOvercast
10:35 AM27.5 °F20.5 °F75 %30.17 in10.0 miSW (230°)9.2 mphOvercast
10:55 AM27.9 °F20.3 °F73 %30.17 in7.0 miSW (230°)11.5 mph16.1 mphOvercast
11:15 AM28.4 °F20.1 °F71 %30.18 in2.5 miSW (230°)9.2 mphOvercast
11:35 AM28.2 °F20.3 °F72 %30.18 in7.0 miSW (230°)10.4 mph16.1 mphOvercast
11:55 AM28.4 °F19.9 °F71 %30.17 in10.0 miSW (230°)11.5 mphOvercast
12:15 PM29.1 °F19.4 °F67 %30.17 in10.0 miSW (230°)13.8 mphOvercast
12:35 PM30.4 °F19.6 °F64 %30.16 in10.0 miWSW (240°)8.1 mphOvercast
12:55 PM28.4 °F21.2 °F74 %30.17 in1.5 miSW (230°)17.3 mph23.0 mphOvercast
1:15 PM30.2 °F21.4 °F70 %30.16 in5.0 miSW (230°)10.4 mph16.1 mphOvercast
1:35 PM30.0 °F19.9 °F66 %30.16 in10.0 miSW (220°)15.0 mph19.6 mphOvercast
1:55 PM29.5 °F19.6 °F67 %30.16 in10.0 miSW (230°)10.4 mphOvercast
2:15 PM29.3 °F20.5 °F70 %30.17 in10.0 miSW (220°)10.4 mphOvercast
2:35 PM29.1 °F18.7 °F65 %30.17 in10.0 miSSW (200°)9.2 mphOvercast
2:55 PM29.3 °F16.2 °F58 %30.18 in10.0 miWSW (240°)10.4 mphOvercast
3:15 PM29.1 °F15.1 °F56 %30.18 in10.0 miWest (260°)16.1 mph21.9 mphOvercast
3:35 PM27.5 °F20.5 °F75 %30.19 in2.5 miCalmOvercast
3:55 PM26.6 °F18.9 °F73 %30.19 in10.0 miWNW (300°)4.6 mphMostly Cloudy
4:15 PM28.2 °F12.7 °F52 %30.19 in10.0 miWest (280°)5.8 mphOvercast
4:35 PM28.4 °F10.6 °F47 %30.19 in10.0 miWest (260°)4.6 mphOvercast
4:55 PM27.1 °F15.8 °F62 %30.19 in10.0 miSW (230°)9.2 mphOvercast
5:15 PM26.6 °F15.6 °F63 %30.19 in10.0 miSW (230°)4.6 mphOvercast
5:35 PM25.7 °F16.9 °F69 %30.19 in10.0 miSW (230°)9.2 mphOvercast
5:55 PM25.3 °F18.0 °F74 %30.20 in7.0 miCalmOvercast
6:15 PM24.8 °F18.1 °F76 %30.20 in7.0 miCalmOvercast
6:35 PM24.1 °F19.2 °F82 %30.20 in10.0 miCalmOvercast
6:55 PM23.7 °F19.4 °F84 %30.20 in10.0 miCalmOvercast
7:15 PM23.4 °F19.0 °F84 %30.20 in10.0 miCalmOvercast
7:35 PM23.0 °F18.7 °F84 %30.19 in10.0 miENE (70°)4.6 mphMostly Cloudy
7:55 PM22.8 °F18.5 °F83 %30.19 in10.0 miNE (50°)3.5 mphMostly Cloudy
8:15 PM23.4 °F18.3 °F81 %30.19 in10.0 miEast (90°)3.5 mphOvercast
8:35 PM23.9 °F18.5 °F80 %30.19 in10.0 miCalmOvercast
8:55 PM24.1 °F18.3 °F79 %30.19 in10.0 miCalmOvercast
9:15 PM23.0 °F17.8 °F80 %30.20 in10.0 miCalmOvercast
9:35 PM23.2 °F17.8 °F80 %30.20 in10.0 miSouth (170°)3.5 mphOvercast
9:55 PM22.6 °F17.4 °F80 %30.21 in10.0 miCalmOvercast
10:15 PM21.6 °F17.8 °F85 %30.21 in10.0 miCalmOvercast
10:35 PM21.7 °F17.4 °F83 %30.22 in10.0 miCalmOvercast
10:55 PM21.9 °F17.6 °F83 %30.22 in10.0 miCalmOvercast
11:15 PM23.0 °F15.8 °F74 %30.22 in10.0 miSW (230°)5.8 mphOvercast
11:35 PM22.6 °F15.8 °F75 %30.22 in10.0 miSW (220°)9.2 mphOvercast
11:55 PM22.5 °F16.3 °F77 %30.23 in10.0 miSW (220°)10.4 mphOvercast
Hourly data recorded from KSBS, located miles away from Steamboat Springs, Colorado







STORIES FROM OUR PARTNERS